Flag for Taiwan Weather past 2 weeks in Taichung, Taiwan

Now
86 °F

Passing clouds.


Feels Like: 93 °F
Forecast: 84 / 95 °F
Wind: 21 mph from Northeast

Location: Chiang Kai Shek

Current Time: Sep 19, 2014 at 8:03:29 PM

Latest Report: Sep 19, 2014 at 7:30 PM


Visibility: N/A

Pressure: 29.62 "Hg

Humidity: 66%

Dew point: 73 °F

Location of TaichungLocation

Historic Weather in Taichung — Graph

°F

Taichung temperature yesterday

Maximum temperature yesterday: 99 °F (at 1:30 PM)
Minimum temperature yesterday: 81 °F (at 5:00 AM)
Average temperature yesterday: 89 °F

Past Weeks' High & Low Weather Summary

 TemperatureHumidityPressure
High100 °F (Sep 15, 12:30 PM)89% (Sep 7, 4:00 AM)29.95 "Hg (Sep 7, 4:00 AM)
Low79 °F (Sep 7, 4:00 AM)39% (Sep 15, 11:00 AM)29.56 "Hg (Sep 15, 6:30 AM)
Average87 °F67%29.76 "Hg
* Reported Sep 4 7:00 PM — Sep 19 7:00 PM, Taichung, Weather by CustomWeather, © 2014

Note: Actual official high and low records may vary slightly from our data, if they occured in-between our weather recording intervals... More about our weather records

Advertising

Taichung weather history for previous 24 hours

 ConditionsComfort  
Time TempWeatherWind HumidityBarometerVisibility
7:00 PM
Sep 19
88 °FPassing clouds.17 mph62%29.62 "HgN/A
6:30 PM88 °FPartly cloudy.20 mph62%29.62 "HgN/A
6:00 PM88 °FPartly cloudy.22 mph62%29.59 "HgN/A
5:30 PM90 °FBroken clouds.20 mph59%29.59 "HgN/A
5:00 PM90 °FBroken clouds.20 mph59%29.59 "HgN/A
4:30 PM91 °FBroken clouds.24 mph52%29.59 "HgN/A
4:00 PM93 °FBroken clouds.24 mph49%29.56 "HgN/A
3:30 PM93 °FBroken clouds.25 mph49%29.56 "HgN/A
3:00 PM95 °FBroken clouds.25 mph44%29.56 "HgN/A
2:30 PM95 °FBroken clouds.26 mph47%29.56 "HgN/A
2:00 PM95 °FBroken clouds.20 mph47%29.56 "HgN/A
1:30 PM95 °FBroken clouds.26 mph47%29.59 "HgN/A
1:00 PM95 °FPartly sunny.32 mph44%29.59 "HgN/A
12:30 PM95 °FPartly sunny.30 mph47%29.62 "HgN/A
12:00 PM93 °FPartly sunny.28 mph56%29.62 "HgN/A
11:30 AM99 °FPartly sunny.26 mph42%29.62 "HgN/A
11:00 AM97 °FPartly sunny.28 mph42%29.65 "HgN/A
10:30 AM97 °FPartly sunny.26 mph42%29.68 "HgN/A
10:00 AM93 °FPartly sunny.26 mph47%29.68 "HgN/A
9:30 AM91 °FPartly sunny.26 mph52%29.71 "HgN/A
9:00 AM93 °FPartly sunny.23 mph49%29.71 "HgN/A
8:30 AM90 °FPartly sunny.21 mph55%29.71 "HgN/A
7:30 AM86 °FPartly sunny.17 mph62%29.74 "HgN/A
7:00 AM86 °FPartly sunny.17 mph59%29.71 "HgN/A
6:30 AM84 °FPartly sunny.18 mph62%29.71 "HgN/A
6:00 AM84 °FPartly sunny.18 mph62%29.71 "HgN/A
5:30 AM84 °FPassing clouds.23 mph62%29.71 "HgN/A
5:00 AM84 °FPassing clouds.23 mph62%29.71 "HgN/A
4:30 AM84 °FPassing clouds.23 mph62%29.71 "HgN/A
4:00 AM84 °FPassing clouds.22 mph62%29.74 "HgN/A
3:50 AM84 °FPassing clouds.22 mph62%29.74 "HgN/A
3:00 AM84 °FPassing clouds.22 mph66%29.74 "HgN/A
2:30 AM84 °FPassing clouds.21 mph66%29.77 "HgN/A
2:00 AM84 °FPassing clouds.22 mph66%29.77 "HgN/A
1:30 AM84 °FPassing clouds.22 mph66%29.80 "HgN/A
1:00 AM84 °FPassing clouds.23 mph66%29.80 "HgN/A
12:30 AM84 °FPassing clouds.23 mph66%29.80 "HgN/A
12:00 AM84 °FPassing clouds.21 mph70%29.80 "HgN/A
11:30 PM
Sep 18
84 °FPassing clouds.18 mph70%29.80 "HgN/A
11:00 PM84 °FPassing clouds.17 mph66%29.83 "HgN/A
10:30 PM84 °FPassing clouds.17 mph66%29.83 "HgN/A
10:00 PM86 °FPassing clouds.15 mph62%29.83 "HgN/A
9:30 PM86 °FPassing clouds.15 mph62%29.83 "HgN/A
9:00 PM86 °FPassing clouds.16 mph62%29.83 "HgN/A
8:30 PM86 °FPassing clouds.16 mph62%29.83 "HgN/A
8:00 PM86 °FPassing clouds.18 mph62%29.83 "HgN/A
Weather by CustomWeather, © 2014

See weather overviewHow to use our weather pages